Location: Newark
(35.8833°N, 14.5000°E)
Time: 02:31:44
(UTC+00:00)

Altair - Pass Details

Date: 29 November 2019
Orbit: 1502 x 1682 km, 47.2° (Epoch: 07 December)

Event Time Altitude Azimuth Distance (km) Brightness Sun altitude
Rises 23:23:14 0° 247° (WSW) 4,713 - -74.0°
Reaches altitude 10° 23:26:22 10° 250° (WSW) 3,710 - -73.7°
Maximum altitude 23:35:37 66° 332° (NNW) 1,622 - -72.6°
Drops below altitude 10° 23:44:45 10° 55° (NE) 3,653 - -71.4°
Exits shadow 23:47:38 - 58° (ENE) 4,576 10.2 -71.0°
Sets 23:47:49 0° 58° (ENE) 4,638 10.3 -71.0°
